BEIDOU-3 M20 (C42)

Last updated on Wed Nov 20 2024 00:03:15 GMT+0000 (Coordinated Universal Time)

1 44865U 19090B 24324.30547546 -.00000024 00000+0 00000+0 0 9990 2 44865 56.0590 81.9075 0013832 292.6106 101.8618 1.86231394 33511
UTC large
Height (km)
Speed (km/s)
/
Latitude / Longitude
Inclination (degrees)
Orbital Period (minutes)
Azimuth
Elevation
Range (km)
Doppler Factor

Next 0 passes for location: London (51.5072 / 0.1276)

Sorry there are no passes over London.